GW0275 Weather Reports


Display with metric or nautical units.
time (UTC)temp
F
wind
direction
speed
MPH
gust
MPH
rain 1hr
in
rain 24hr
in
rain mn
in
humidity
%
barometer
mb
20260508181601 53 55 7.0 13.0 0.00 0.89 0.00 77 1001.7
20260508180043 53 86 9.0 15.0 0.00 0.89 0.00 78 1001.6
20260508174543 53 109 8.0 15.0 0.00 0.89 0.00 76 1001.6
20260508173041 53 80 8.0 13.0 0.00 0.89 0.00 76 1001.4
20260508171537 53 62 7.0 13.0 0.00 0.89 0.00 78 1001.8
20260508170038 53 83 7.0 12.0 0.00 0.89 0.00 78 1001.9
20260508164535 51 66 7.0 11.0 0.00 0.89 0.00 80 1001.8
20260508163041 51 87 3.0 10.0 0.00 0.89 0.00 81 1001.6
20260508161536 49 57 5.0 11.0 0.00 0.89 0.00 82 1001.5
20260508160036 49 55 6.0 12.0 0.00 0.89 0.00 80 1001.7
20260508154535 50 84 8.0 11.0 0.00 0.89 0.00 80 1001.6
20260508153044 50 100 8.0 12.0 0.00 0.89 0.00 83 1001.7
20260508151535 51 80 7.0 12.0 0.00 0.89 0.00 81 1001.6
20260508150031 52 90 3.0 10.0 0.00 0.89 0.00 76 1001.7
20260508144534 53 94 4.0 11.0 0.00 0.89 0.00 77 1002.0
20260508143039 52 100 1.0 10.0 0.00 0.89 0.00 82 1001.8
20260508141535 51 71 6.0 13.0 0.00 0.89 0.00 82 1002.0
20260508140036 51 80 8.0 13.0 0.00 0.89 0.00 84 1002.2
20260508134531 51 76 7.0 12.0 0.00 0.89 0.00 83 1002.3
20260508133054 51 89 6.0 11.0 0.00 0.89 0.00 84 1002.7
20260508131534 51 90 6.0 11.0 0.00 0.89 0.00 86 1002.6
20260508130035 50 86 6.0 9.0 0.00 0.89 0.00 88 1002.3
20260508124539 49 77 5.0 9.0 0.00 0.90 0.00 89 1002.1
20260508123052 47 46 3.0 10.0 0.00 0.90 0.00 88 1002.3
20260508121549 48 85 4.0 9.0 0.00 0.90 0.00 88 1002.4
20260508120035 48 0 0.0 5.0 0.00 0.90 0.00 90 1002.4
20260508114535 47 42 2.0 6.0 0.00 0.90 0.00 91 1002.9
20260508113034 46 36 0.0 5.0 0.00 0.90 0.00 93 1002.7
20260508111533 44 35 3.0 6.0 0.00 0.90 0.00 95 1002.6
20260508110044 43 23 0.0 4.0 0.00 0.90 0.00 96 1002.6
20260508104536 42 0 0.0 0.0 0.00 0.90 0.00 96 1002.9
20260508103036 42 0 0.0 0.0 0.00 0.90 0.00 97 1003.1
20260508101535 42 0 0.0 0.0 0.00 0.90 0.00 97 1002.9
20260508100034 41 0 0.0 0.0 0.00 0.90 0.00 96 1002.8
20260508094545 41 0 0.0 3.0 0.00 0.90 0.00 97 1002.4
20260508093035 41 0 0.0 0.0 0.00 0.90 0.00 97 1002.5
20260508091535 41 0 0.0 0.0 0.00 0.90 0.00 97 1002.4
20260508090036 41 0 0.0 3.0 0.00 0.90 0.00 97 1002.5
20260508084534 41 42 0.0 3.0 0.00 0.95 0.00 97 1002.4
20260508083032 41 41 1.0 5.0 0.00 0.95 0.00 96 1002.1
20260508081534 41 61 0.0 4.0 0.00 0.95 0.00 96 1001.8
20260508080038 41 0 2.0 9.0 0.00 0.95 0.00 96 1001.9
20260508074537 42 57 4.0 9.0 0.00 0.98 0.00 96 1002.1
20260508073036 42 61 3.0 8.0 0.00 0.98 0.00 96 1002.1
20260508071536 42 100 5.0 9.0 0.00 0.98 0.00 96 1002.0
20260508070035 43 56 4.0 12.0 0.00 0.98 0.00 96 1001.9
20260508064539 45 68 6.0 13.0 0.00 0.98 0.00 96 1001.9
20260508063035 46 69 3.0 9.0 0.00 0.98 0.00 96 1001.8
20260508061537 47 40 2.0 9.0 0.00 0.98 0.00 96 1002.1
20260508060035 47 0 2.0 9.0 0.00 0.98 0.00 96 1001.7
20260508054543 48 34 1.0 4.0 0.00 0.98 0.00 96 1001.6
20260508053032 48 21 1.0 4.0 0.00 0.98 0.00 96 1001.7
20260508051539 48 0 0.0 0.0 0.00 0.98 0.00 96 1001.3
20260508050036 49 0 0.0 0.0 0.00 0.98 0.00 96 1001.3
20260508044534 49 0 0.0 0.0 0.00 0.98 0.00 96 1001.5
20260508043038 49 0 0.0 0.0 0.00 0.98 0.00 96 1001.6
20260508041535 49 0 0.0 0.0 0.00 0.98 0.00 96 1001.7
20260508040037 49 0 0.0 1.0 0.00 0.98 0.00 97 1001.7
20260508034543 49 0 0.0 0.0 0.00 0.98 0.00 97 1002.0
20260508033032 49 0 0.0 4.0 0.00 0.98 0.00 97 1002.1
20260508031533 49 276 0.0 4.0 0.00 0.98 0.00 96 1002.0
20260508030043 49 275 2.0 8.0 0.00 0.98 0.00 97 1002.3
20260508024543 49 302 0.0 3.0 0.00 0.98 0.98 97 1001.9
20260508023036 49 0 0.0 0.0 0.00 0.98 0.98 97 1001.8
20260508021532 49 0 0.0 3.0 0.00 0.98 0.98 96 1001.8
20260508020031 49 234 0.0 4.0 0.00 0.98 0.98 96 1001.8
20260508014538 49 202 0.0 5.0 0.00 0.98 0.98 96 1002.0
20260508013037 50 179 1.0 5.0 0.00 0.98 0.98 96 1001.8
20260508011542 50 203 2.0 6.0 0.00 0.98 0.98 96 1001.6
20260508010035 50 213 3.0 11.0 0.00 0.98 0.98 96 1002.0
20260508004532 50 198 2.0 6.0 0.00 0.98 0.98 96 1002.0
20260508003038 50 209 2.0 5.0 0.00 0.98 0.98 96 1001.9
20260508001536 50 204 2.0 7.0 0.00 0.98 0.98 96 1002.1
20260508000035 51 176 4.0 8.0 0.00 0.98 0.98 96 1002.5
20260507234534 51 213 2.0 5.0 0.00 0.98 0.98 96 1002.3
20260507233037 51 159 4.0 6.0 0.00 0.98 0.98 95 1002.4
20260507231546 51 219 2.0 10.0 0.00 0.98 0.98 95 1002.5
20260507230032 51 190 2.0 7.0 0.00 0.98 0.98 95 1002.5
20260507224537 51 199 3.0 7.0 0.00 0.98 0.98 95 1002.5
20260507223038 51 190 3.0 8.0 0.00 0.98 0.98 95 1002.4
20260507221537 51 216 5.0 15.0 0.00 0.98 0.98 94 1003.0
20260507220034 51 292 4.0 10.0 0.00 0.98 0.98 95 1002.7
20260507214532 50 197 2.0 10.0 0.02 0.98 0.98 94 1002.7
20260507213040 50 209 6.0 18.0 0.06 0.98 0.98 94 1002.7
20260507211534 50 178 7.0 15.0 0.12 0.98 0.98 94 1001.9
20260507210034 51 124 5.0 14.0 0.21 0.98 0.98 94 1002.3
20260507204540 51 140 5.0 11.0 0.29 0.96 0.96 94 1002.9
20260507203041 51 169 4.0 12.0 0.39 0.92 0.92 94 1003.8
20260507201538 52 167 4.0 11.0 0.46 0.85 0.85 94 1003.9
20260507200045 52 175 4.0 12.0 0.45 0.77 0.77 94 1004.5
20260507194537 52 209 1.0 6.0 0.43 0.67 0.67 94 1004.9
20260507193034 52 216 6.0 16.0 0.40 0.52 0.52 94 1004.8
20260507191535 53 166 8.0 16.0 0.29 0.39 0.39 94 1004.6
20260507190033 53 158 12.0 21.0 0.23 0.32 0.32 93 1004.9
20260507184539 53 165 11.0 21.0 0.15 0.24 0.24 93 1004.9
20260507183043 53 186 13.0 26.0 0.04 0.13 0.13 92 1005.3